Regional Weather Roundup
Issued by NWS

Home | Current Version | Previous Version | Graphics & Text | Print | Product List | Glossary On
Versions: 1 2 3 4 5 6 7 8 9 10 11 12 13 14 15 16 17 18 19 20 21 22 23 24 25 26 27 28 29 30 31 32 33 34 35 36 37 38 39 40 41 42 43 44 45 46 47 48 49 50
000
ASUS43 KFSD 290810
RWRSD

WEATHER ROUNDUP FOR SOUTH DAKOTA
NATIONAL WEATHER SERVICE SIOUX FALLS SD
300 AM CDT FRI MAY 29 2015

NOTE: "FAIR" INDICATES FEW OR NO CLOUDS BELOW 12,000 FEET WITH NO
SIGNIFICANT WEATHER AND/OR OBSTRUCTIONS TO VISIBILITY.


SDZ001>005-009-010-012>017-290900-
NORTHWEST AND NORTH CENTRAL SOUTH DAKOTA

CITY           SKY/WX    TMP DP  RH WIND       PRES   REMARKS
BUFFALO          N/A     55  52  89 N16       30.01R
FAITH            N/A     57  55  93 N16       29.98R
MOBRIDGE       CLOUDY    63  60  90 N10       29.89R
$$

SDZ012>016-024>037-041>051-057-063-072>074-290900-
SOUTHWEST AND SOUTH CENTRAL SOUTH DAKOTA

CITY           SKY/WX    TMP DP  RH WIND       PRES   REMARKS
RAPID CTY ARPT CLOUDY    57  51  80 N22G29    30.03R
PIERRE         CLOUDY    60  58  92 NW8       29.87R
CUSTER         CLOUDY    51  43  74 VRB5      30.09R
ELLSWORTH AFB  CLOUDY    57  52  82 NW22G28   30.03R
PHILIP         CLOUDY    58  54  86 NW14      29.93F
PINE RIDGE     CLOUDY    54  52  93 E3        30.02F
SPEARFISH      LGT RAIN  54  54 100 NW9       30.10R
WINNER         CLOUDY    61  55  81 W13       29.89S
$$

SDZ004>011-016>023-039-040-290900-
NORTHEAST SOUTH DAKOTA

CITY           SKY/WX    TMP DP  RH WIND       PRES   REMARKS
ABERDEEN       CLOUDY    62  60  93 N3        29.86S
WATERTOWN      CLOUDY    60  57  89 E9        29.84F
BROOKINGS      CLOUDY    64  61  88 N7        29.88R
SISSETON         N/A     60  60 100 W3        29.83F
$$

SDZ017-020-022-023-036>040-048>070-290900-
SOUTHEAST SOUTH DAKOTA

CITY           SKY/WX    TMP DP  RH WIND       PRES   REMARKS
SIOUX FALLS    CLOUDY    67  64  90 S12       29.86S
HURON            N/A    N/A N/A N/A MISG      29.82F
CHAMBERLAIN    CLOUDY    59  57  94 W6        29.87S
MITCHELL       CLOUDY    64  60  87 S5        29.84S
YANKTON        CLOUDY    64  63  94 E5        29.83F
$$

ABBREVIATIONS USED IN REMARKS
   TC - TEMPERATURE IN CELSIUS
  WCI - WIND CHILL INDEX
   HX - HEAT INDEX
  VSB - VISIBILITY




USA.gov is the U.S. government's official web portal to all federal, state and local government web resources and services.